Flag for France Weather past 2 weeks in Rennes, France

Now
37 °F

Partly sunny.


Feels Like: 31 °F
Forecast: 34 / 42 °F
Wind: 9 mph from West

Location: Rennes Airport

Current Time: Jan 31, 2015 at 11:28:08 AM

Latest Report: Jan 31, 2015 at 11:00 AM


Visibility: N/A

Pressure: 29.21 "Hg

Humidity: 87%

Dew point: 34 °F

Location of RennesLocation

Historic Weather in Rennes — Graph

°F

Rennes temperature yesterday

Maximum temperature yesterday: 46 °F (at 12:00 PM)
Minimum temperature yesterday: 36 °F (at 2:00 AM)
Average temperature yesterday: 40 °F

Past Weeks' High & Low Weather Summary

 TemperatureHumidityPressure
High54 °F (Jan 26, 3:00 PM)100% (Jan 16, 11:30 AM)30.57 "Hg (Jan 16, 11:30 AM)
Low25 °F (Jan 23, 6:30 AM)57% (Jan 17, 2:00 PM)29.09 "Hg (Jan 29, 5:00 PM)
Average39 °F85%29.96 "Hg
* Reported Jan 16 10:00 AM — Jan 31 10:30 AM, Rennes, Weather by CustomWeather, © 2014

Note: Actual official high and low records may vary slightly from our data, if they occured in-between our weather recording intervals... More about our weather records

Advertising

Rennes weather history for previous 24 hours

 ConditionsComfort  
Time TempWeatherWind HumidityBarometerVisibility
10:30 AM
Jan 31
37 °FBroken clouds.10 mph93%29.18 "HgN/A
10:00 AM37 °FClear.10 mph87%29.18 "HgN/A
9:30 AM37 °FDrizzle. Partly sunny.12 mph87%29.18 "HgN/A
9:00 AM36 °FBroken clouds.10 mph93%29.18 "HgN/A
8:30 AM36 °FLight rain. Passing clouds.8 mph93%29.15 "HgN/A
8:00 AM36 °FLight rain. Passing clouds.5 mph93%29.15 "HgN/A
7:30 AM36 °FPartly cloudy.10 mph87%29.15 "HgN/A
7:00 AM36 °FLight rain. Partly cloudy.15 mph93%29.15 "HgN/A
6:30 AM34 °FClear.6 mph100%29.12 "HgN/A
6:00 AM34 °FPartly cloudy.3 mph93%29.12 "HgN/A
5:30 AM36 °FPartly cloudy.7 mph93%29.12 "HgN/A
5:00 AM37 °FPartly cloudy.13 mph93%29.12 "HgN/A
4:00 AM36 °FPartly cloudy.9 mph93%29.12 "HgN/A
3:30 AM36 °FClear.7 mph93%29.12 "HgN/A
3:00 AM36 °FPassing clouds.8 mph93%29.12 "HgN/A
2:30 AM36 °FPartly cloudy.8 mph93%29.12 "HgN/A
2:00 AM36 °FPartly cloudy.7 mph93%29.12 "HgN/A
1:30 AM36 °FPartly cloudy.7 mph93%29.09 "HgN/A
1:00 AM37 °FPartly cloudy.8 mph87%29.09 "HgN/A
12:30 AM36 °FPassing clouds.8 mph93%29.09 "HgN/A
12:00 AM36 °FPassing clouds.5 mph93%29.09 "HgN/A
11:30 PM
Jan 30
37 °FPassing clouds.7 mph87%29.09 "HgN/A
11:00 PM37 °FPassing clouds.5 mph93%29.09 "HgN/A
10:30 PM39 °FPassing clouds.8 mph87%29.09 "HgN/A
10:00 PM37 °FPartly cloudy.6 mph87%29.09 "HgN/A
9:30 PM39 °FClear.8 mph87%29.09 "HgN/A
9:00 PM39 °FClear.7 mph93%29.09 "HgN/A
8:30 PM39 °FMostly cloudy.5 mph93%29.09 "HgN/A
8:00 PM39 °FPartly cloudy.8 mph93%29.09 "HgN/A
7:30 PM39 °FLight rain. Mostly cloudy.9 mph93%29.09 "HgN/A
7:00 PM39 °FPartly cloudy.5 mph87%29.09 "HgN/A
6:30 PM41 °FPassing clouds.8 mph87%29.09 "HgN/A
6:00 PM43 °FLight rain. Partly sunny.12 mph87%29.09 "HgN/A
5:30 PM43 °FBroken clouds.8 mph87%29.09 "HgN/A
5:00 PM41 °FBroken clouds.6 mph93%29.09 "HgN/A
4:30 PM45 °FMostly cloudy.12 mph81%29.09 "HgN/A
4:00 PM43 °FRain. Broken clouds.12 mph87%29.12 "HgN/A
3:30 PM45 °FLight rain. Partly sunny.12 mph87%29.12 "HgN/A
3:00 PM45 °FBroken clouds.8 mph87%29.12 "HgN/A
2:30 PM43 °FLight rain. More clouds than sun.13 mph87%29.12 "Hg4 mi
2:00 PM43 °FRain. Broken clouds.20 mph87%29.12 "Hg6 mi
1:30 PM45 °FPartly sunny.21 mph76%29.12 "HgN/A
1:00 PM46 °FPartly sunny.23 mph76%29.12 "HgN/A
12:30 PM46 °FBroken clouds.24 mph71%29.12 "HgN/A
12:00 PM46 °FBroken clouds.18 mph76%29.12 "HgN/A
11:30 AM43 °FBroken clouds.16 mph81%29.12 "HgN/A
11:00 AM43 °FMostly cloudy.20 mph81%29.09 "HgN/A
Weather by CustomWeather, © 2014

See weather overviewHow to use our weather pages